Content
SEND FEEDBACK

Daily
Averages
Monthly
Summary
United States of America

DUNSMUIR, CALIFORNIA


Home > North America > United States > California
Elevation: 3289 feet     Latitude: 41 12N     Longitude: 122 16W

WEATHER
 
SELECT A DAY
Number of Records: 231,425;   Date Range: 1/1/95 - 8/12/14
 
SHARE

PRINT THIS DATA

[ ← Previous Day ]
WEATHER ALMANAC - FEBRUARY 19, 2013
[ Next Day → ]
[ °C ]   °F
Weather ElementAverageHighLow
Temperature31 °F35.1 °F (2:56 pm)30 °F (9:56 am)
Dewpoint26.9 °F28.9 °F (5:56 am)24.1 °F (1:56 pm)
Humidity84.9 %93 % (7:08 am)67 % (2:56 pm)
Barometer29.69 in29.92 in (11:56 pm)29.58 in (7:23 am)
Wind Speed6.1 mph12.7 mph (8:56 pm)
Wind Gust26.5 mph (10:56 pm)
Weather ElementAverage
Visibility2.8 mi
Wind DirectionSSE (150.5 °)

Weather ElementTotal
Precipitation1.39 in
Heating Degree Days32.5 (Base 65)
Averaged from 61 records on February 19, 2013
WEATHER CONDITIONS BREAKOUT
WIND DIRECTION BREAKOUT
WEATHER BY HOUR - FEBRUARY 19, 2013
[ °C ]   °F
Local TimeTemperatureDewpointHumidityBarometerVisibilityWind DirectionWind SpeedGust SpeedPrecipitationEventsConditions
1:56 AM32.0 °F25.0 °F75 %29.78 in10.0 miVariable3.5 mphClear
2:56 AM32.0 °F26.1 °F79 %29.76 in10.0 miVariable3.5 mphMostly Cloudy
3:56 AM32.0 °F28.0 °F85 %29.74 in4.0 miCalm0.00 inSnowLight Snow
4:56 AM32.0 °F28.0 °F85 %29.71 in10.0 miESE (120°)3.5 mph0.00 inMostly Cloudy
5:56 AM32.0 °F28.9 °F88 %29.68 in3.0 miCalm0.00 inSnowLight Snow
6:05 AM32.0 °F28.4 °F87 %29.60 in2.0 miSE (130°)4.6 mph0.01 inSnowLight Snow
6:12 AM32.0 °F28.4 °F87 %29.60 in0.8 miSE (130°)3.5 mph0.01 inSnowLight Snow
6:20 AM32.0 °F28.4 °F87 %29.60 in0.5 miVariable3.5 mph0.02 inFog-SnowSnow
6:30 AM32.0 °F28.4 °F87 %29.59 in0.5 miVariable3.5 mph0.02 inFog-SnowSnow
6:41 AM32.0 °F28.4 °F87 %29.59 in1.0 miCalm0.03 inSnowLight Snow
6:56 AM30.9 °F28.0 °F89 %29.67 in1.5 miCalm0.04 inSnowLight Snow
7:08 AM30.2 °F28.4 °F93 %29.59 in1.0 miSE (130°)4.6 mph0.00 inSnowLight Snow
7:15 AM30.2 °F28.4 °F93 %29.59 in0.5 miCalm0.01 inFog-SnowSnow
7:23 AM30.2 °F28.4 °F93 %29.58 in0.2 miCalm0.02 inFog-SnowHeavy Snow
7:56 AM30.9 °F28.9 °F92 %29.67 in0.2 miCalm0.06 inFog-SnowSnow
8:08 AM30.2 °F28.4 °F93 %29.58 in0.2 miCalm0.01 inFog-SnowHeavy Snow
8:56 AM30.9 °F28.0 °F89 %29.69 in0.2 miVariable3.5 mph0.05 inFog-SnowLight Snow
9:06 AM30.2 °F28.4 °F93 %29.60 in0.2 miWNW (300°)4.6 mph0.05 inFog-SnowHeavy Snow
9:21 AM30.2 °F28.4 °F93 %29.60 in0.2 miCalm0.11 inFog-SnowHeavy Snow
9:41 AM30.2 °F28.4 °F93 %29.61 in0.2 miCalm0.14 inFog-SnowHeavy Snow
9:56 AM30.0 °F28.0 °F92 %29.71 in0.2 miCalm0.16 inFog-SnowHeavy Snow
10:34 AM30.2 °F26.6 °F86 %29.61 in0.5 miNNE (30°)6.9 mph0.05 inFog-SnowLight Snow
10:45 AM30.2 °F26.6 °F86 %29.62 in0.8 miVariable4.6 mph0.05 inSnowLight Snow
10:53 AM30.2 °F26.6 °F86 %29.62 in0.2 miNorth (10°)8.1 mph0.06 inFog-SnowHeavy Snow
10:56 AM30.0 °F26.1 °F85 %29.73 in0.2 miNorth (360°)5.8 mph0.06 inFog-SnowSnow
11:15 AM30.2 °F26.6 °F86 %29.62 in1.5 miNorth (10°)4.6 mph0.00 inSnowLight Snow
11:18 AM30.2 °F24.8 °F80 %29.62 in2.0 miNorth (360°)8.1 mph0.00 inSnowLight Snow
11:33 AM32.0 °F26.6 °F80 %29.62 in3.0 miVariable5.8 mph0.00 inSnowLight Snow
11:56 AM34.0 °F25.0 °F70 %29.72 in5.0 miNorth (10°)6.9 mph0.00 inSnowLight Snow
12:12 PM32.0 °F24.8 °F75 %29.62 in2.5 miVariable5.8 mph0.00 inSnowLight Snow
12:19 PM32.0 °F24.8 °F75 %29.62 in3.0 miVariable5.8 mph0.00 inSnowLight Snow
12:29 PM32.0 °F24.8 °F75 %29.62 in6.0 miNNW (330°)8.1 mph0.00 inSnowLight Snow
12:56 PM33.1 °F25.0 °F72 %29.71 in10.0 miVariable6.9 mph0.00 inOvercast
1:56 PM33.1 °F24.1 °F70 %29.72 in10.0 miWNW (300°)10.4 mph18.4 mphOvercast
2:56 PM35.1 °F25.0 °F67 %29.71 in9.0 miWNW (300°)9.2 mphMostly Cloudy
4:21 PM30.2 °F26.6 °F86 %29.65 in10.0 miWNW (300°)9.2 mphOvercast
4:33 PM30.2 °F26.6 °F86 %29.65 in10.0 miVariable6.9 mph17.3 mphOvercast
4:45 PM30.2 °F26.6 °F86 %29.66 in7.0 miVariable6.9 mph0.00 inSnowLight Snow
4:52 PM30.2 °F26.6 °F86 %29.66 in2.5 miVariable6.9 mph0.00 inSnowLight Snow
4:56 PM30.9 °F26.1 °F82 %29.77 in1.5 miVariable4.6 mph0.00 inSnowLight Snow
5:13 PM30.2 °F26.6 °F86 %29.67 in0.8 miVariable6.9 mph0.01 inSnowLight Snow
5:56 PM30.0 °F26.1 °F85 %29.78 in0.8 miNNW (330°)8.1 mph0.02 inSnowLight Snow
6:04 PM30.2 °F26.6 °F86 %29.68 in1.2 miNW (310°)11.5 mph18.4 mph0.00 inSnowLight Snow
6:13 PM30.2 °F26.6 °F86 %29.68 in1.0 miNNW (330°)10.4 mph20.7 mph0.01 inSnowLight Snow
6:22 PM30.2 °F26.6 °F86 %29.69 in0.8 miNW (320°)8.1 mph25.3 mph0.01 inSnowLight Snow
6:42 PM30.2 °F26.6 °F86 %29.70 in0.8 miNNW (330°)8.1 mph20.7 mph0.03 inSnowLight Snow
6:56 PM30.0 °F27.0 °F88 %29.82 in0.8 miNNW (340°)10.4 mph23.0 mph0.04 inSnowLight Snow
7:46 PM30.2 °F26.6 °F86 %29.73 in1.0 miVariable6.9 mph0.04 inSnowLight Snow
7:56 PM30.9 °F27.0 °F85 %29.84 in0.8 miNNW (340°)8.1 mph18.4 mph0.05 inSnowLight Snow
8:14 PM30.2 °F26.6 °F86 %29.74 in1.2 miNNW (340°)9.2 mph18.4 mph0.01 inSnowLight Snow
8:25 PM30.2 °F26.6 °F86 %29.75 in2.0 miNorth (350°)10.4 mph24.2 mph0.02 inSnowLight Snow
8:33 PM30.2 °F26.6 °F86 %29.75 in2.5 miNNW (340°)9.2 mph23.0 mph0.02 inSnowLight Snow
8:44 PM30.2 °F26.6 °F86 %29.75 in1.2 miNNW (340°)11.5 mph20.7 mph0.03 inSnowLight Snow
8:56 PM30.0 °F28.0 °F92 %29.86 in0.5 miNNW (340°)12.7 mph19.6 mph0.04 inFog-SnowSnow
9:08 PM30.2 °F26.6 °F86 %29.76 in1.2 miNorth (350°)9.2 mph20.7 mph0.01 inSnowLight Snow
9:18 PM30.2 °F26.6 °F86 %29.77 in1.5 miNNW (340°)8.1 mph0.02 inSnowLight Snow
9:29 PM30.2 °F26.6 °F86 %29.78 in2.5 miNorth (350°)8.1 mph17.3 mph0.02 inSnowLight Snow
9:37 PM30.2 °F26.6 °F86 %29.78 in4.0 miNNW (330°)9.2 mph20.7 mph0.02 inSnowLight Snow
9:56 PM30.9 °F26.1 °F82 %29.89 in4.0 miNNW (340°)12.7 mph25.3 mph0.03 inSnowLight Snow
10:56 PM32.0 °F27.0 °F82 %29.90 in4.0 miNW (320°)10.4 mph26.5 mph0.00 inSnowLight Snow
11:56 PM32.0 °F26.1 °F79 %29.92 in5.0 miNW (320°)12.7 mph26.5 mph0.00 inSnowLight Snow
Hourly data recorded from KMHS, located miles away from Dunsmuir, California







STORIES FROM OUR PARTNERS